Index of /20260426/WXO-DD/model_caps/3km/00/043
Name Last modified Size Description
Parent Directory -
20260426T00Z_MSC_CAPS_AbsoluteVorticity_IsbL-0250_RLatLon0.03_PT043H.grib2 2026-04-26 06:19 1.0M
20260426T00Z_MSC_CAPS_AbsoluteVorticity_IsbL-0500_RLatLon0.03_PT043H.grib2 2026-04-26 06:19 1.3M
20260426T00Z_MSC_CAPS_AbsoluteVorticity_IsbL-0700_RLatLon0.03_PT043H.grib2 2026-04-26 06:19 1.4M
20260426T00Z_MSC_CAPS_AbsoluteVorticity_IsbL-0850_RLatLon0.03_PT043H.grib2 2026-04-26 06:19 1.2M
20260426T00Z_MSC_CAPS_AbsoluteVorticity_IsbL-1000_RLatLon0.03_PT043H.grib2 2026-04-26 06:19 1.4M
20260426T00Z_MSC_CAPS_AirDensity_AGL-120m_RLatLon0.03_PT043H.grib2 2026-04-26 06:19 1.4M
20260426T00Z_MSC_CAPS_AirDensity_AGL-40m_RLatLon0.03_PT043H.grib2 2026-04-26 06:19 1.4M
20260426T00Z_MSC_CAPS_AirDensity_AGL-80m_RLatLon0.03_PT043H.grib2 2026-04-26 06:19 1.4M
20260426T00Z_MSC_CAPS_AirTemp_AGL-120m_RLatLon0.03_PT043H.grib2 2026-04-26 06:19 1.9M
20260426T00Z_MSC_CAPS_AirTemp_AGL-2m_RLatLon0.03_PT043H.grib2 2026-04-26 06:19 2.1M
20260426T00Z_MSC_CAPS_AirTemp_AGL-40m_RLatLon0.03_PT043H.grib2 2026-04-26 06:19 1.8M
20260426T00Z_MSC_CAPS_AirTemp_AGL-80m_RLatLon0.03_PT043H.grib2 2026-04-26 06:19 1.8M
20260426T00Z_MSC_CAPS_AirTemp_IsbL-0050_RLatLon0.03_PT043H.grib2 2026-04-26 06:19 698K
20260426T00Z_MSC_CAPS_AirTemp_IsbL-0100_RLatLon0.03_PT043H.grib2 2026-04-26 06:19 950K
20260426T00Z_MSC_CAPS_AirTemp_IsbL-0150_RLatLon0.03_PT043H.grib2 2026-04-26 06:19 735K
20260426T00Z_MSC_CAPS_AirTemp_IsbL-0175_RLatLon0.03_PT043H.grib2 2026-04-26 06:19 760K
20260426T00Z_MSC_CAPS_AirTemp_IsbL-0200_RLatLon0.03_PT043H.grib2 2026-04-26 06:19 780K
20260426T00Z_MSC_CAPS_AirTemp_IsbL-0225_RLatLon0.03_PT043H.grib2 2026-04-26 06:19 782K
20260426T00Z_MSC_CAPS_AirTemp_IsbL-0250_RLatLon0.03_PT043H.grib2 2026-04-26 06:19 778K
20260426T00Z_MSC_CAPS_AirTemp_IsbL-0275_RLatLon0.03_PT043H.grib2 2026-04-26 06:19 778K
20260426T00Z_MSC_CAPS_AirTemp_IsbL-0300_RLatLon0.03_PT043H.grib2 2026-04-26 06:19 767K
20260426T00Z_MSC_CAPS_AirTemp_IsbL-0350_RLatLon0.03_PT043H.grib2 2026-04-26 06:19 740K
20260426T00Z_MSC_CAPS_AirTemp_IsbL-0400_RLatLon0.03_PT043H.grib2 2026-04-26 06:19 746K
20260426T00Z_MSC_CAPS_AirTemp_IsbL-0450_RLatLon0.03_PT043H.grib2 2026-04-26 06:19 764K
20260426T00Z_MSC_CAPS_AirTemp_IsbL-0500_RLatLon0.03_PT043H.grib2 2026-04-26 06:19 781K
20260426T00Z_MSC_CAPS_AirTemp_IsbL-0550_RLatLon0.03_PT043H.grib2 2026-04-26 06:19 797K
20260426T00Z_MSC_CAPS_AirTemp_IsbL-0600_RLatLon0.03_PT043H.grib2 2026-04-26 06:19 813K
20260426T00Z_MSC_CAPS_AirTemp_IsbL-0650_RLatLon0.03_PT043H.grib2 2026-04-26 06:19 1.0M
20260426T00Z_MSC_CAPS_AirTemp_IsbL-0700_RLatLon0.03_PT043H.grib2 2026-04-26 06:19 1.0M
20260426T00Z_MSC_CAPS_AirTemp_IsbL-0750_RLatLon0.03_PT043H.grib2 2026-04-26 06:19 1.0M
20260426T00Z_MSC_CAPS_AirTemp_IsbL-0800_RLatLon0.03_PT043H.grib2 2026-04-26 06:19 1.0M
20260426T00Z_MSC_CAPS_AirTemp_IsbL-0850_RLatLon0.03_PT043H.grib2 2026-04-26 06:19 1.1M
20260426T00Z_MSC_CAPS_AirTemp_IsbL-0875_RLatLon0.03_PT043H.grib2 2026-04-26 06:19 1.1M
20260426T00Z_MSC_CAPS_AirTemp_IsbL-0900_RLatLon0.03_PT043H.grib2 2026-04-26 06:19 1.0M
20260426T00Z_MSC_CAPS_AirTemp_IsbL-0925_RLatLon0.03_PT043H.grib2 2026-04-26 06:19 1.1M
20260426T00Z_MSC_CAPS_AirTemp_IsbL-0950_RLatLon0.03_PT043H.grib2 2026-04-26 06:19 1.2M
20260426T00Z_MSC_CAPS_AirTemp_IsbL-0970_RLatLon0.03_PT043H.grib2 2026-04-26 06:19 1.2M
20260426T00Z_MSC_CAPS_AirTemp_IsbL-0985_RLatLon0.03_PT043H.grib2 2026-04-26 06:19 1.1M
20260426T00Z_MSC_CAPS_AirTemp_IsbL-1000_RLatLon0.03_PT043H.grib2 2026-04-26 06:19 1.1M
20260426T00Z_MSC_CAPS_AirTemp_IsbL-1015_RLatLon0.03_PT043H.grib2 2026-04-26 06:19 1.0M
20260426T00Z_MSC_CAPS_Albedo_Sfc_RLatLon0.03_PT043H.grib2 2026-04-26 06:19 2.7M
20260426T00Z_MSC_CAPS_CAPE_Sfc_RLatLon0.03_PT043H.grib2 2026-04-26 06:19 44K
20260426T00Z_MSC_CAPS_CloudWater_EAtm_RLatLon0.03_PT043H.grib2 2026-04-26 06:19 1.4M
20260426T00Z_MSC_CAPS_ConvectivePrecip-Accum_Sfc_RLatLon0.03_PT043H.grib2 2026-04-26 06:19 5.2M
20260426T00Z_MSC_CAPS_DewPointDepression_AGL-120m_RLatLon0.03_PT043H.grib2 2026-04-26 06:19 2.1M
20260426T00Z_MSC_CAPS_DewPointDepression_AGL-2m_RLatLon0.03_PT043H.grib2 2026-04-26 06:19 2.2M
20260426T00Z_MSC_CAPS_DewPointDepression_AGL-40m_RLatLon0.03_PT043H.grib2 2026-04-26 06:19 2.2M
20260426T00Z_MSC_CAPS_DewPointDepression_AGL-80m_RLatLon0.03_PT043H.grib2 2026-04-26 06:19 2.1M
20260426T00Z_MSC_CAPS_DewPointDepression_IsbL-0050_RLatLon0.03_PT043H.grib2 2026-04-26 06:19 5.0K
20260426T00Z_MSC_CAPS_DewPointDepression_IsbL-0100_RLatLon0.03_PT043H.grib2 2026-04-26 06:19 110K
20260426T00Z_MSC_CAPS_DewPointDepression_IsbL-0150_RLatLon0.03_PT043H.grib2 2026-04-26 06:19 97K
20260426T00Z_MSC_CAPS_DewPointDepression_IsbL-0175_RLatLon0.03_PT043H.grib2 2026-04-26 06:19 219K
20260426T00Z_MSC_CAPS_DewPointDepression_IsbL-0200_RLatLon0.03_PT043H.grib2 2026-04-26 06:19 433K
20260426T00Z_MSC_CAPS_DewPointDepression_IsbL-0225_RLatLon0.03_PT043H.grib2 2026-04-26 06:19 678K
20260426T00Z_MSC_CAPS_DewPointDepression_IsbL-0250_RLatLon0.03_PT043H.grib2 2026-04-26 06:19 874K
20260426T00Z_MSC_CAPS_DewPointDepression_IsbL-0275_RLatLon0.03_PT043H.grib2 2026-04-26 06:19 1.0M
20260426T00Z_MSC_CAPS_DewPointDepression_IsbL-0300_RLatLon0.03_PT043H.grib2 2026-04-26 06:19 1.0M
20260426T00Z_MSC_CAPS_DewPointDepression_IsbL-0350_RLatLon0.03_PT043H.grib2 2026-04-26 06:19 1.1M
20260426T00Z_MSC_CAPS_DewPointDepression_IsbL-0400_RLatLon0.03_PT043H.grib2 2026-04-26 06:19 1.1M
20260426T00Z_MSC_CAPS_DewPointDepression_IsbL-0450_RLatLon0.03_PT043H.grib2 2026-04-26 06:19 1.1M
20260426T00Z_MSC_CAPS_DewPointDepression_IsbL-0500_RLatLon0.03_PT043H.grib2 2026-04-26 06:19 1.2M
20260426T00Z_MSC_CAPS_DewPointDepression_IsbL-0550_RLatLon0.03_PT043H.grib2 2026-04-26 06:19 1.2M
20260426T00Z_MSC_CAPS_DewPointDepression_IsbL-0600_RLatLon0.03_PT043H.grib2 2026-04-26 06:19 1.3M
20260426T00Z_MSC_CAPS_DewPointDepression_IsbL-0650_RLatLon0.03_PT043H.grib2 2026-04-26 06:19 1.3M
20260426T00Z_MSC_CAPS_DewPointDepression_IsbL-0700_RLatLon0.03_PT043H.grib2 2026-04-26 06:19 1.3M
20260426T00Z_MSC_CAPS_DewPointDepression_IsbL-0750_RLatLon0.03_PT043H.grib2 2026-04-26 06:19 1.3M
20260426T00Z_MSC_CAPS_DewPointDepression_IsbL-0800_RLatLon0.03_PT043H.grib2 2026-04-26 06:19 1.3M
20260426T00Z_MSC_CAPS_DewPointDepression_IsbL-0850_RLatLon0.03_PT043H.grib2 2026-04-26 06:19 1.4M
20260426T00Z_MSC_CAPS_DewPointDepression_IsbL-0875_RLatLon0.03_PT043H.grib2 2026-04-26 06:19 1.4M
20260426T00Z_MSC_CAPS_DewPointDepression_IsbL-0900_RLatLon0.03_PT043H.grib2 2026-04-26 06:19 1.4M
20260426T00Z_MSC_CAPS_DewPointDepression_IsbL-0925_RLatLon0.03_PT043H.grib2 2026-04-26 06:19 1.4M
20260426T00Z_MSC_CAPS_DewPointDepression_IsbL-0950_RLatLon0.03_PT043H.grib2 2026-04-26 06:19 1.4M
20260426T00Z_MSC_CAPS_DewPointDepression_IsbL-0970_RLatLon0.03_PT043H.grib2 2026-04-26 06:19 1.3M
20260426T00Z_MSC_CAPS_DewPointDepression_IsbL-0985_RLatLon0.03_PT043H.grib2 2026-04-26 06:19 1.3M
20260426T00Z_MSC_CAPS_DewPointDepression_IsbL-1000_RLatLon0.03_PT043H.grib2 2026-04-26 06:19 1.3M
20260426T00Z_MSC_CAPS_DewPointDepression_IsbL-1015_RLatLon0.03_PT043H.grib2 2026-04-26 06:19 1.3M
20260426T00Z_MSC_CAPS_DewPoint_AGL-120m_RLatLon0.03_PT043H.grib2 2026-04-26 06:19 3.7M
20260426T00Z_MSC_CAPS_DewPoint_AGL-2m_RLatLon0.03_PT043H.grib2 2026-04-26 06:19 2.1M
20260426T00Z_MSC_CAPS_DewPoint_AGL-40m_RLatLon0.03_PT043H.grib2 2026-04-26 06:19 3.8M
20260426T00Z_MSC_CAPS_DewPoint_AGL-80m_RLatLon0.03_PT043H.grib2 2026-04-26 06:19 3.7M
20260426T00Z_MSC_CAPS_DownwardLongwaveRadiationFlux-Accum_Sfc_RLatLon0.03_PT043H.grib2 2026-04-26 06:19 2.2M
20260426T00Z_MSC_CAPS_DownwardShortwaveRadiationFlux-Accum_NTAtm_RLatLon0.03_PT043H.grib2 2026-04-26 06:19 507K
20260426T00Z_MSC_CAPS_DownwardShortwaveRadiationFlux-Accum_Sfc_RLatLon0.03_PT043H.grib2 2026-04-26 06:19 2.9M
20260426T00Z_MSC_CAPS_FreezingRain-Accum_Sfc_RLatLon0.03_PT043H.grib2 2026-04-26 06:19 951K
20260426T00Z_MSC_CAPS_GeopotentialHeight_IsbL-0050_RLatLon0.03_PT043H.grib2 2026-04-26 06:19 637K
20260426T00Z_MSC_CAPS_GeopotentialHeight_IsbL-0100_RLatLon0.03_PT043H.grib2 2026-04-26 06:19 821K
20260426T00Z_MSC_CAPS_GeopotentialHeight_IsbL-0150_RLatLon0.03_PT043H.grib2 2026-04-26 06:19 615K
20260426T00Z_MSC_CAPS_GeopotentialHeight_IsbL-0175_RLatLon0.03_PT043H.grib2 2026-04-26 06:19 733K
20260426T00Z_MSC_CAPS_GeopotentialHeight_IsbL-0200_RLatLon0.03_PT043H.grib2 2026-04-26 06:19 737K
20260426T00Z_MSC_CAPS_GeopotentialHeight_IsbL-0225_RLatLon0.03_PT043H.grib2 2026-04-26 06:19 750K
20260426T00Z_MSC_CAPS_GeopotentialHeight_IsbL-0250_RLatLon0.03_PT043H.grib2 2026-04-26 06:19 758K
20260426T00Z_MSC_CAPS_GeopotentialHeight_IsbL-0275_RLatLon0.03_PT043H.grib2 2026-04-26 06:19 768K
20260426T00Z_MSC_CAPS_GeopotentialHeight_IsbL-0300_RLatLon0.03_PT043H.grib2 2026-04-26 06:19 774K
20260426T00Z_MSC_CAPS_GeopotentialHeight_IsbL-0350_RLatLon0.03_PT043H.grib2 2026-04-26 06:19 778K
20260426T00Z_MSC_CAPS_GeopotentialHeight_IsbL-0400_RLatLon0.03_PT043H.grib2 2026-04-26 06:19 771K
20260426T00Z_MSC_CAPS_GeopotentialHeight_IsbL-0450_RLatLon0.03_PT043H.grib2 2026-04-26 06:19 761K
20260426T00Z_MSC_CAPS_GeopotentialHeight_IsbL-0500_RLatLon0.03_PT043H.grib2 2026-04-26 06:19 756K
20260426T00Z_MSC_CAPS_GeopotentialHeight_IsbL-0550_RLatLon0.03_PT043H.grib2 2026-04-26 06:19 753K
20260426T00Z_MSC_CAPS_GeopotentialHeight_IsbL-0600_RLatLon0.03_PT043H.grib2 2026-04-26 06:19 742K
20260426T00Z_MSC_CAPS_GeopotentialHeight_IsbL-0650_RLatLon0.03_PT043H.grib2 2026-04-26 06:19 740K
20260426T00Z_MSC_CAPS_GeopotentialHeight_IsbL-0700_RLatLon0.03_PT043H.grib2 2026-04-26 06:19 632K
20260426T00Z_MSC_CAPS_GeopotentialHeight_IsbL-0750_RLatLon0.03_PT043H.grib2 2026-04-26 06:19 629K
20260426T00Z_MSC_CAPS_GeopotentialHeight_IsbL-0800_RLatLon0.03_PT043H.grib2 2026-04-26 06:19 634K
20260426T00Z_MSC_CAPS_GeopotentialHeight_IsbL-0850_RLatLon0.03_PT043H.grib2 2026-04-26 06:19 822K
20260426T00Z_MSC_CAPS_GeopotentialHeight_IsbL-0875_RLatLon0.03_PT043H.grib2 2026-04-26 06:19 813K
20260426T00Z_MSC_CAPS_GeopotentialHeight_IsbL-0900_RLatLon0.03_PT043H.grib2 2026-04-26 06:19 834K
20260426T00Z_MSC_CAPS_GeopotentialHeight_IsbL-0925_RLatLon0.03_PT043H.grib2 2026-04-26 06:19 830K
20260426T00Z_MSC_CAPS_GeopotentialHeight_IsbL-0950_RLatLon0.03_PT043H.grib2 2026-04-26 06:19 856K
20260426T00Z_MSC_CAPS_GeopotentialHeight_IsbL-0970_RLatLon0.03_PT043H.grib2 2026-04-26 06:19 866K
20260426T00Z_MSC_CAPS_GeopotentialHeight_IsbL-0985_RLatLon0.03_PT043H.grib2 2026-04-26 06:19 874K
20260426T00Z_MSC_CAPS_GeopotentialHeight_IsbL-1000_RLatLon0.03_PT043H.grib2 2026-04-26 06:19 882K
20260426T00Z_MSC_CAPS_GeopotentialHeight_IsbL-1015_RLatLon0.03_PT043H.grib2 2026-04-26 06:19 891K
20260426T00Z_MSC_CAPS_GeopotentialHeight_Sfc_RLatLon0.03_PT043H.grib2 2026-04-26 06:19 1.0M
20260426T00Z_MSC_CAPS_IcePellets-Accum_Sfc_RLatLon0.03_PT043H.grib2 2026-04-26 06:19 48K
20260426T00Z_MSC_CAPS_LatentHeatNetFlux_Sfc_RLatLon0.03_PT043H.grib2 2026-04-26 06:19 2.0M
20260426T00Z_MSC_CAPS_LiftedIndex-MU-VT_IsbL-0500_RLatLon0.03_PT043H.grib2 2026-04-26 06:19 3.3M
20260426T00Z_MSC_CAPS_MixedLayerThickness_Sfc_RLatLon0.03_PT043H.nc 2026-04-26 06:12 17M
20260426T00Z_MSC_CAPS_NetLongwaveRadiationFlux-Accum_Sfc_RLatLon0.03_PT043H.grib2 2026-04-26 06:19 2.9M
20260426T00Z_MSC_CAPS_NetShortwaveRadiationFlux-Accum_Sfc_RLatLon0.03_PT043H.grib2 2026-04-26 06:19 2.9M
20260426T00Z_MSC_CAPS_PlanetaryBoundaryLayerHeight_Sfc_RLatLon0.03_PT043H.grib2 2026-04-26 06:19 2.9M
20260426T00Z_MSC_CAPS_Precip-Accum_Sfc_RLatLon0.03_PT043H.grib2 2026-04-26 06:19 5.5M
20260426T00Z_MSC_CAPS_PrecipRate_Sfc_RLatLon0.03_PT043H.grib2 2026-04-26 06:19 590K
20260426T00Z_MSC_CAPS_PrecipType-Instant_Sfc_RLatLon0.03_PT043H.grib2 2026-04-26 06:19 1.9M
20260426T00Z_MSC_CAPS_Pressure_MSL_RLatLon0.03_PT043H.grib2 2026-04-26 06:19 771K
20260426T00Z_MSC_CAPS_Pressure_Sfc_RLatLon0.03_PT043H.grib2 2026-04-26 06:19 1.2M
20260426T00Z_MSC_CAPS_RadiativeTemp_Sfc_RLatLon0.03_PT043H.grib2 2026-04-26 06:19 2.1M
20260426T00Z_MSC_CAPS_Rain-Accum_Sfc_RLatLon0.03_PT043H.grib2 2026-04-26 06:19 2.3M
20260426T00Z_MSC_CAPS_RelativeHumidity_AGL-120m_RLatLon0.03_PT043H.grib2 2026-04-26 06:19 2.8M
20260426T00Z_MSC_CAPS_RelativeHumidity_AGL-2m_RLatLon0.03_PT043H.grib2 2026-04-26 06:19 2.9M
20260426T00Z_MSC_CAPS_RelativeHumidity_AGL-40m_RLatLon0.03_PT043H.grib2 2026-04-26 06:19 2.9M
20260426T00Z_MSC_CAPS_RelativeHumidity_AGL-80m_RLatLon0.03_PT043H.grib2 2026-04-26 06:19 2.8M
20260426T00Z_MSC_CAPS_RelativeHumidity_IsbL-0050_RLatLon0.03_PT043H.grib2 2026-04-26 06:19 1.0M
20260426T00Z_MSC_CAPS_RelativeHumidity_IsbL-0100_RLatLon0.03_PT043H.grib2 2026-04-26 06:19 914K
20260426T00Z_MSC_CAPS_RelativeHumidity_IsbL-0150_RLatLon0.03_PT043H.grib2 2026-04-26 06:19 629K
20260426T00Z_MSC_CAPS_RelativeHumidity_IsbL-0175_RLatLon0.03_PT043H.grib2 2026-04-26 06:19 522K
20260426T00Z_MSC_CAPS_RelativeHumidity_IsbL-0200_RLatLon0.03_PT043H.grib2 2026-04-26 06:19 706K
20260426T00Z_MSC_CAPS_RelativeHumidity_IsbL-0225_RLatLon0.03_PT043H.grib2 2026-04-26 06:19 886K
20260426T00Z_MSC_CAPS_RelativeHumidity_IsbL-0250_RLatLon0.03_PT043H.grib2 2026-04-26 06:19 1.1M
20260426T00Z_MSC_CAPS_RelativeHumidity_IsbL-0275_RLatLon0.03_PT043H.grib2 2026-04-26 06:19 1.4M
20260426T00Z_MSC_CAPS_RelativeHumidity_IsbL-0300_RLatLon0.03_PT043H.grib2 2026-04-26 06:19 1.7M
20260426T00Z_MSC_CAPS_RelativeHumidity_IsbL-0350_RLatLon0.03_PT043H.grib2 2026-04-26 06:19 2.0M
20260426T00Z_MSC_CAPS_RelativeHumidity_IsbL-0400_RLatLon0.03_PT043H.grib2 2026-04-26 06:19 1.9M
20260426T00Z_MSC_CAPS_RelativeHumidity_IsbL-0450_RLatLon0.03_PT043H.grib2 2026-04-26 06:19 2.0M
20260426T00Z_MSC_CAPS_RelativeHumidity_IsbL-0500_RLatLon0.03_PT043H.grib2 2026-04-26 06:19 2.0M
20260426T00Z_MSC_CAPS_RelativeHumidity_IsbL-0550_RLatLon0.03_PT043H.grib2 2026-04-26 06:19 2.2M
20260426T00Z_MSC_CAPS_RelativeHumidity_IsbL-0600_RLatLon0.03_PT043H.grib2 2026-04-26 06:19 2.2M
20260426T00Z_MSC_CAPS_RelativeHumidity_IsbL-0650_RLatLon0.03_PT043H.grib2 2026-04-26 06:19 2.2M
20260426T00Z_MSC_CAPS_RelativeHumidity_IsbL-0700_RLatLon0.03_PT043H.grib2 2026-04-26 06:19 2.3M
20260426T00Z_MSC_CAPS_RelativeHumidity_IsbL-0750_RLatLon0.03_PT043H.grib2 2026-04-26 06:19 2.4M
20260426T00Z_MSC_CAPS_RelativeHumidity_IsbL-0800_RLatLon0.03_PT043H.grib2 2026-04-26 06:19 2.4M
20260426T00Z_MSC_CAPS_RelativeHumidity_IsbL-0850_RLatLon0.03_PT043H.grib2 2026-04-26 06:19 2.5M
20260426T00Z_MSC_CAPS_RelativeHumidity_IsbL-0875_RLatLon0.03_PT043H.grib2 2026-04-26 06:19 2.6M
20260426T00Z_MSC_CAPS_RelativeHumidity_IsbL-0900_RLatLon0.03_PT043H.grib2 2026-04-26 06:19 2.6M
20260426T00Z_MSC_CAPS_RelativeHumidity_IsbL-0925_RLatLon0.03_PT043H.grib2 2026-04-26 06:19 2.6M
20260426T00Z_MSC_CAPS_RelativeHumidity_IsbL-0950_RLatLon0.03_PT043H.grib2 2026-04-26 06:19 2.7M
20260426T00Z_MSC_CAPS_RelativeHumidity_IsbL-0970_RLatLon0.03_PT043H.grib2 2026-04-26 06:19 2.8M
20260426T00Z_MSC_CAPS_RelativeHumidity_IsbL-0985_RLatLon0.03_PT043H.grib2 2026-04-26 06:19 2.8M
20260426T00Z_MSC_CAPS_RelativeHumidity_IsbL-1000_RLatLon0.03_PT043H.grib2 2026-04-26 06:19 2.9M
20260426T00Z_MSC_CAPS_RelativeHumidity_IsbL-1015_RLatLon0.03_PT043H.grib2 2026-04-26 06:19 2.9M
20260426T00Z_MSC_CAPS_Runoff-Accum_Sfc_RLatLon0.03_PT043H.grib2 2026-04-26 06:19 245K
20260426T00Z_MSC_CAPS_SeaIceAreaFraction_Sfc_RLatLon0.03_PT043H.nc 2026-04-26 06:12 15M
20260426T00Z_MSC_CAPS_SeaIceCompressiveStrength_Sfc_RLatLon0.03_PT043H.nc 2026-04-26 06:12 15M
20260426T00Z_MSC_CAPS_SeaIceDivergence_Sfc_RLatLon0.03_PT043H.nc 2026-04-26 06:12 15M
20260426T00Z_MSC_CAPS_SeaIceInternalPressure_Sfc_RLatLon0.03_PT043H.nc 2026-04-26 06:12 15M
20260426T00Z_MSC_CAPS_SeaIceShear_Sfc_RLatLon0.03_PT043H.nc 2026-04-26 06:12 15M
20260426T00Z_MSC_CAPS_SeaIceSnowTemp_Sfc_RLatLon0.03_PT043H.nc 2026-04-26 06:12 15M
20260426T00Z_MSC_CAPS_SeaIceSnowVolume_Sfc_RLatLon0.03_PT043H.nc 2026-04-26 06:12 15M
20260426T00Z_MSC_CAPS_SeaIceVelocityX_Sfc_RLatLon0.03_PT043H.nc 2026-04-26 06:12 15M
20260426T00Z_MSC_CAPS_SeaIceVelocityY_Sfc_RLatLon0.03_PT043H.nc 2026-04-26 06:12 15M
20260426T00Z_MSC_CAPS_SeaIceVolume_Sfc_RLatLon0.03_PT043H.nc 2026-04-26 06:12 15M
20260426T00Z_MSC_CAPS_SeaSurfaceHeight_Sfc_RLatLon0.03_PT043H.nc 2026-04-26 06:12 16M
20260426T00Z_MSC_CAPS_SeaWaterSalinity_DBS-0.5m_RLatLon0.03_PT043H.nc 2026-04-26 06:12 16M
20260426T00Z_MSC_CAPS_SeaWaterSalinity_DBS-all_RLatLon0.03_PT043H.nc 2026-04-26 06:12 107M
20260426T00Z_MSC_CAPS_SeaWaterTemp_DBS-0.5m_RLatLon0.03_PT043H.nc 2026-04-26 06:12 14M
20260426T00Z_MSC_CAPS_SeaWaterTemp_DBS-all_RLatLon0.03_PT043H.nc 2026-04-26 06:12 87M
20260426T00Z_MSC_CAPS_SeaWaterVelocityX_DBS-0.5m_RLatLon0.03_PT043H.nc 2026-04-26 06:12 17M
20260426T00Z_MSC_CAPS_SeaWaterVelocityX_DBS-all_RLatLon0.03_PT043H.nc 2026-04-26 06:12 209M
20260426T00Z_MSC_CAPS_SeaWaterVelocityY_DBS-0.5m_RLatLon0.03_PT043H.nc 2026-04-26 06:12 17M
20260426T00Z_MSC_CAPS_SeaWaterVelocityY_DBS-all_RLatLon0.03_PT043H.nc 2026-04-26 06:12 211M
20260426T00Z_MSC_CAPS_SensibleHeatNetFlux_Sfc_RLatLon0.03_PT043H.grib2 2026-04-26 06:19 2.3M
20260426T00Z_MSC_CAPS_ShowalterIndex_IsbL-0500_RLatLon0.03_PT043H.grib2 2026-04-26 06:19 4.3M
20260426T00Z_MSC_CAPS_Snow-Accum_Sfc_RLatLon0.03_PT043H.grib2 2026-04-26 06:19 4.7M
20260426T00Z_MSC_CAPS_SnowDensity_Sfc_RLatLon0.03_PT043H.grib2 2026-04-26 06:19 1.4M
20260426T00Z_MSC_CAPS_SnowDepthWaterEquivalent_Sfc_RLatLon0.03_PT043H.grib2 2026-04-26 06:19 729K
20260426T00Z_MSC_CAPS_SnowDepth_Sfc_RLatLon0.03_PT043H.grib2 2026-04-26 06:19 1.3M
20260426T00Z_MSC_CAPS_SoilTemp_DBS-0to10cm_RLatLon0.03_PT043H.grib2 2026-04-26 06:19 1.7M
20260426T00Z_MSC_CAPS_SoilTemp_Sfc_RLatLon0.03_PT043H.grib2 2026-04-26 06:19 1.8M
20260426T00Z_MSC_CAPS_SoilVolumetricIceContent_Sfc_RLatLon0.03_PT043H.grib2 2026-04-26 06:19 1.5M
20260426T00Z_MSC_CAPS_SoilVolumetricWaterContent_DBS-0to10cm_RLatLon0.03_PT043H.grib2 2026-04-26 06:19 1.1M
20260426T00Z_MSC_CAPS_SoilVolumetricWaterContent_DBS-0to1cm_RLatLon0.03_PT043H.grib2 2026-04-26 06:19 1.7M
20260426T00Z_MSC_CAPS_SpecificHumidity_AGL-120m_RLatLon0.03_PT043H.grib2 2026-04-26 06:19 1.7M
20260426T00Z_MSC_CAPS_SpecificHumidity_AGL-2m_RLatLon0.03_PT043H.grib2 2026-04-26 06:19 2.0M
20260426T00Z_MSC_CAPS_SpecificHumidity_AGL-40m_RLatLon0.03_PT043H.grib2 2026-04-26 06:19 1.8M
20260426T00Z_MSC_CAPS_SpecificHumidity_AGL-80m_RLatLon0.03_PT043H.grib2 2026-04-26 06:19 1.8M
20260426T00Z_MSC_CAPS_SpecificHumidity_IsbL-0050_RLatLon0.03_PT043H.grib2 2026-04-26 06:19 949K
20260426T00Z_MSC_CAPS_SpecificHumidity_IsbL-0100_RLatLon0.03_PT043H.grib2 2026-04-26 06:19 1.0M
20260426T00Z_MSC_CAPS_SpecificHumidity_IsbL-0150_RLatLon0.03_PT043H.grib2 2026-04-26 06:19 1.0M
20260426T00Z_MSC_CAPS_SpecificHumidity_IsbL-0175_RLatLon0.03_PT043H.grib2 2026-04-26 06:19 1.0M
20260426T00Z_MSC_CAPS_SpecificHumidity_IsbL-0200_RLatLon0.03_PT043H.grib2 2026-04-26 06:19 1.0M
20260426T00Z_MSC_CAPS_SpecificHumidity_IsbL-0225_RLatLon0.03_PT043H.grib2 2026-04-26 06:19 852K
20260426T00Z_MSC_CAPS_SpecificHumidity_IsbL-0250_RLatLon0.03_PT043H.grib2 2026-04-26 06:19 1.1M
20260426T00Z_MSC_CAPS_SpecificHumidity_IsbL-0275_RLatLon0.03_PT043H.grib2 2026-04-26 06:19 1.1M
20260426T00Z_MSC_CAPS_SpecificHumidity_IsbL-0300_RLatLon0.03_PT043H.grib2 2026-04-26 06:19 1.0M
20260426T00Z_MSC_CAPS_SpecificHumidity_IsbL-0350_RLatLon0.03_PT043H.grib2 2026-04-26 06:19 962K
20260426T00Z_MSC_CAPS_SpecificHumidity_IsbL-0400_RLatLon0.03_PT043H.grib2 2026-04-26 06:19 1.1M
20260426T00Z_MSC_CAPS_SpecificHumidity_IsbL-0450_RLatLon0.03_PT043H.grib2 2026-04-26 06:19 1.1M
20260426T00Z_MSC_CAPS_SpecificHumidity_IsbL-0500_RLatLon0.03_PT043H.grib2 2026-04-26 06:19 1.3M
20260426T00Z_MSC_CAPS_SpecificHumidity_IsbL-0550_RLatLon0.03_PT043H.grib2 2026-04-26 06:19 1.3M
20260426T00Z_MSC_CAPS_SpecificHumidity_IsbL-0600_RLatLon0.03_PT043H.grib2 2026-04-26 06:19 1.4M
20260426T00Z_MSC_CAPS_SpecificHumidity_IsbL-0650_RLatLon0.03_PT043H.grib2 2026-04-26 06:19 1.5M
20260426T00Z_MSC_CAPS_SpecificHumidity_IsbL-0700_RLatLon0.03_PT043H.grib2 2026-04-26 06:19 1.6M
20260426T00Z_MSC_CAPS_SpecificHumidity_IsbL-0750_RLatLon0.03_PT043H.grib2 2026-04-26 06:19 1.7M
20260426T00Z_MSC_CAPS_SpecificHumidity_IsbL-0800_RLatLon0.03_PT043H.grib2 2026-04-26 06:19 1.5M
20260426T00Z_MSC_CAPS_SpecificHumidity_IsbL-0850_RLatLon0.03_PT043H.grib2 2026-04-26 06:19 1.6M
20260426T00Z_MSC_CAPS_SpecificHumidity_IsbL-0875_RLatLon0.03_PT043H.grib2 2026-04-26 06:19 1.7M
20260426T00Z_MSC_CAPS_SpecificHumidity_IsbL-0900_RLatLon0.03_PT043H.grib2 2026-04-26 06:19 1.8M
20260426T00Z_MSC_CAPS_SpecificHumidity_IsbL-0925_RLatLon0.03_PT043H.grib2 2026-04-26 06:19 1.8M
20260426T00Z_MSC_CAPS_SpecificHumidity_IsbL-0950_RLatLon0.03_PT043H.grib2 2026-04-26 06:19 1.9M
20260426T00Z_MSC_CAPS_SpecificHumidity_IsbL-0970_RLatLon0.03_PT043H.grib2 2026-04-26 06:19 1.9M
20260426T00Z_MSC_CAPS_SpecificHumidity_IsbL-0985_RLatLon0.03_PT043H.grib2 2026-04-26 06:19 2.0M
20260426T00Z_MSC_CAPS_SpecificHumidity_IsbL-1000_RLatLon0.03_PT043H.grib2 2026-04-26 06:19 2.0M
20260426T00Z_MSC_CAPS_SpecificHumidity_IsbL-1015_RLatLon0.03_PT043H.grib2 2026-04-26 06:19 2.0M
20260426T00Z_MSC_CAPS_SpecificHumidity_Sfc_RLatLon0.03_PT043H.grib2 2026-04-26 06:19 2.5M
20260426T00Z_MSC_CAPS_StormRelativeHelicity_Sfc_RLatLon0.03_PT043H.grib2 2026-04-26 06:19 2.8M
20260426T00Z_MSC_CAPS_Thickness_IsbL-1000to0500_RLatLon0.03_PT043H.grib2 2026-04-26 06:19 433K
20260426T00Z_MSC_CAPS_TotalCloudCover_Sfc_RLatLon0.03_PT043H.grib2 2026-04-26 06:19 3.8M
20260426T00Z_MSC_CAPS_TurboclineDepth_Sfc_RLatLon0.03_PT043H.nc 2026-04-26 06:12 16M
20260426T00Z_MSC_CAPS_UpwardLongwaveRadiationFlux_NTAtm_RLatLon0.03_PT043H.grib2 2026-04-26 06:19 3.0M
20260426T00Z_MSC_CAPS_UpwardShortwaveRadiationFlux_NTAtm_RLatLon0.03_PT043H.grib2 2026-04-26 06:19 2.6M
20260426T00Z_MSC_CAPS_VerticalVelocity_IsbL-0250_RLatLon0.03_PT043H.grib2 2026-04-26 06:19 865K
20260426T00Z_MSC_CAPS_VerticalVelocity_IsbL-0500_RLatLon0.03_PT043H.grib2 2026-04-26 06:19 1.1M
20260426T00Z_MSC_CAPS_VerticalVelocity_IsbL-0700_RLatLon0.03_PT043H.grib2 2026-04-26 06:19 1.0M
20260426T00Z_MSC_CAPS_VerticalVelocity_IsbL-0850_RLatLon0.03_PT043H.grib2 2026-04-26 06:19 1.2M
20260426T00Z_MSC_CAPS_VerticalVelocity_IsbL-1000_RLatLon0.03_PT043H.grib2 2026-04-26 06:19 1.1M
20260426T00Z_MSC_CAPS_WindDir_AGL-10m_RLatLon0.03_PT043H.grib2 2026-04-26 06:19 2.4M
20260426T00Z_MSC_CAPS_WindDir_AGL-120m_RLatLon0.03_PT043H.grib2 2026-04-26 06:19 1.3M
20260426T00Z_MSC_CAPS_WindDir_AGL-40m_RLatLon0.03_PT043H.grib2 2026-04-26 06:19 1.4M
20260426T00Z_MSC_CAPS_WindDir_AGL-80m_RLatLon0.03_PT043H.grib2 2026-04-26 06:19 1.4M
20260426T00Z_MSC_CAPS_WindDir_IsbL-0050_RLatLon0.03_PT043H.grib2 2026-04-26 06:19 1.0M
20260426T00Z_MSC_CAPS_WindDir_IsbL-0100_RLatLon0.03_PT043H.grib2 2026-04-26 06:19 1.0M
20260426T00Z_MSC_CAPS_WindDir_IsbL-0150_RLatLon0.03_PT043H.grib2 2026-04-26 06:19 1.0M
20260426T00Z_MSC_CAPS_WindDir_IsbL-0175_RLatLon0.03_PT043H.grib2 2026-04-26 06:19 1.0M
20260426T00Z_MSC_CAPS_WindDir_IsbL-0200_RLatLon0.03_PT043H.grib2 2026-04-26 06:19 1.1M
20260426T00Z_MSC_CAPS_WindDir_IsbL-0225_RLatLon0.03_PT043H.grib2 2026-04-26 06:19 1.1M
20260426T00Z_MSC_CAPS_WindDir_IsbL-0250_RLatLon0.03_PT043H.grib2 2026-04-26 06:19 1.1M
20260426T00Z_MSC_CAPS_WindDir_IsbL-0275_RLatLon0.03_PT043H.grib2 2026-04-26 06:19 1.1M
20260426T00Z_MSC_CAPS_WindDir_IsbL-0300_RLatLon0.03_PT043H.grib2 2026-04-26 06:19 1.1M
20260426T00Z_MSC_CAPS_WindDir_IsbL-0350_RLatLon0.03_PT043H.grib2 2026-04-26 06:19 1.1M
20260426T00Z_MSC_CAPS_WindDir_IsbL-0400_RLatLon0.03_PT043H.grib2 2026-04-26 06:19 1.1M
20260426T00Z_MSC_CAPS_WindDir_IsbL-0450_RLatLon0.03_PT043H.grib2 2026-04-26 06:19 1.2M
20260426T00Z_MSC_CAPS_WindDir_IsbL-0500_RLatLon0.03_PT043H.grib2 2026-04-26 06:19 1.3M
20260426T00Z_MSC_CAPS_WindDir_IsbL-0550_RLatLon0.03_PT043H.grib2 2026-04-26 06:19 1.3M
20260426T00Z_MSC_CAPS_WindDir_IsbL-0600_RLatLon0.03_PT043H.grib2 2026-04-26 06:19 1.3M
20260426T00Z_MSC_CAPS_WindDir_IsbL-0650_RLatLon0.03_PT043H.grib2 2026-04-26 06:19 1.5M
20260426T00Z_MSC_CAPS_WindDir_IsbL-0700_RLatLon0.03_PT043H.grib2 2026-04-26 06:19 1.6M
20260426T00Z_MSC_CAPS_WindDir_IsbL-0750_RLatLon0.03_PT043H.grib2 2026-04-26 06:19 1.6M
20260426T00Z_MSC_CAPS_WindDir_IsbL-0800_RLatLon0.03_PT043H.grib2 2026-04-26 06:19 1.7M
20260426T00Z_MSC_CAPS_WindDir_IsbL-0850_RLatLon0.03_PT043H.grib2 2026-04-26 06:19 1.8M
20260426T00Z_MSC_CAPS_WindDir_IsbL-0875_RLatLon0.03_PT043H.grib2 2026-04-26 06:19 2.0M
20260426T00Z_MSC_CAPS_WindDir_IsbL-0900_RLatLon0.03_PT043H.grib2 2026-04-26 06:19 2.1M
20260426T00Z_MSC_CAPS_WindDir_IsbL-0925_RLatLon0.03_PT043H.grib2 2026-04-26 06:19 2.1M
20260426T00Z_MSC_CAPS_WindDir_IsbL-0950_RLatLon0.03_PT043H.grib2 2026-04-26 06:19 2.2M
20260426T00Z_MSC_CAPS_WindDir_IsbL-0970_RLatLon0.03_PT043H.grib2 2026-04-26 06:19 2.2M
20260426T00Z_MSC_CAPS_WindDir_IsbL-0985_RLatLon0.03_PT043H.grib2 2026-04-26 06:19 2.2M
20260426T00Z_MSC_CAPS_WindDir_IsbL-1000_RLatLon0.03_PT043H.grib2 2026-04-26 06:19 2.3M
20260426T00Z_MSC_CAPS_WindDir_IsbL-1015_RLatLon0.03_PT043H.grib2 2026-04-26 06:19 2.4M
20260426T00Z_MSC_CAPS_WindGust-Max_AGL-10m_RLatLon0.03_PT043H.grib2 2026-04-26 06:19 2.3M
20260426T00Z_MSC_CAPS_WindGust-Min_AGL-10m_RLatLon0.03_PT043H.grib2 2026-04-26 06:19 2.3M
20260426T00Z_MSC_CAPS_WindGust_AGL-10m_RLatLon0.03_PT043H.grib2 2026-04-26 06:19 2.4M
20260426T00Z_MSC_CAPS_WindSpeed_AGL-10m_RLatLon0.03_PT043H.grib2 2026-04-26 06:19 2.1M
20260426T00Z_MSC_CAPS_WindSpeed_AGL-120m_RLatLon0.03_PT043H.grib2 2026-04-26 06:19 1.2M
20260426T00Z_MSC_CAPS_WindSpeed_AGL-40m_RLatLon0.03_PT043H.grib2 2026-04-26 06:19 1.3M
20260426T00Z_MSC_CAPS_WindSpeed_AGL-80m_RLatLon0.03_PT043H.grib2 2026-04-26 06:19 1.2M
20260426T00Z_MSC_CAPS_WindSpeed_IsbL-0050_RLatLon0.03_PT043H.grib2 2026-04-26 06:19 929K
20260426T00Z_MSC_CAPS_WindSpeed_IsbL-0100_RLatLon0.03_PT043H.grib2 2026-04-26 06:19 961K
20260426T00Z_MSC_CAPS_WindSpeed_IsbL-0150_RLatLon0.03_PT043H.grib2 2026-04-26 06:19 1.0M
20260426T00Z_MSC_CAPS_WindSpeed_IsbL-0175_RLatLon0.03_PT043H.grib2 2026-04-26 06:19 1.1M
20260426T00Z_MSC_CAPS_WindSpeed_IsbL-0200_RLatLon0.03_PT043H.grib2 2026-04-26 06:19 1.2M
20260426T00Z_MSC_CAPS_WindSpeed_IsbL-0225_RLatLon0.03_PT043H.grib2 2026-04-26 06:19 1.2M
20260426T00Z_MSC_CAPS_WindSpeed_IsbL-0250_RLatLon0.03_PT043H.grib2 2026-04-26 06:19 960K
20260426T00Z_MSC_CAPS_WindSpeed_IsbL-0275_RLatLon0.03_PT043H.grib2 2026-04-26 06:19 967K
20260426T00Z_MSC_CAPS_WindSpeed_IsbL-0300_RLatLon0.03_PT043H.grib2 2026-04-26 06:19 1.0M
20260426T00Z_MSC_CAPS_WindSpeed_IsbL-0350_RLatLon0.03_PT043H.grib2 2026-04-26 06:19 1.0M
20260426T00Z_MSC_CAPS_WindSpeed_IsbL-0400_RLatLon0.03_PT043H.grib2 2026-04-26 06:19 1.0M
20260426T00Z_MSC_CAPS_WindSpeed_IsbL-0450_RLatLon0.03_PT043H.grib2 2026-04-26 06:19 1.0M
20260426T00Z_MSC_CAPS_WindSpeed_IsbL-0500_RLatLon0.03_PT043H.grib2 2026-04-26 06:19 1.0M
20260426T00Z_MSC_CAPS_WindSpeed_IsbL-0550_RLatLon0.03_PT043H.grib2 2026-04-26 06:19 1.1M
20260426T00Z_MSC_CAPS_WindSpeed_IsbL-0600_RLatLon0.03_PT043H.grib2 2026-04-26 06:19 1.4M
20260426T00Z_MSC_CAPS_WindSpeed_IsbL-0650_RLatLon0.03_PT043H.grib2 2026-04-26 06:19 1.5M
20260426T00Z_MSC_CAPS_WindSpeed_IsbL-0700_RLatLon0.03_PT043H.grib2 2026-04-26 06:19 1.6M
20260426T00Z_MSC_CAPS_WindSpeed_IsbL-0750_RLatLon0.03_PT043H.grib2 2026-04-26 06:19 1.6M
20260426T00Z_MSC_CAPS_WindSpeed_IsbL-0800_RLatLon0.03_PT043H.grib2 2026-04-26 06:19 1.7M
20260426T00Z_MSC_CAPS_WindSpeed_IsbL-0850_RLatLon0.03_PT043H.grib2 2026-04-26 06:19 1.7M
20260426T00Z_MSC_CAPS_WindSpeed_IsbL-0875_RLatLon0.03_PT043H.grib2 2026-04-26 06:19 1.7M
20260426T00Z_MSC_CAPS_WindSpeed_IsbL-0900_RLatLon0.03_PT043H.grib2 2026-04-26 06:19 1.8M
20260426T00Z_MSC_CAPS_WindSpeed_IsbL-0925_RLatLon0.03_PT043H.grib2 2026-04-26 06:19 1.8M
20260426T00Z_MSC_CAPS_WindSpeed_IsbL-0950_RLatLon0.03_PT043H.grib2 2026-04-26 06:19 1.9M
20260426T00Z_MSC_CAPS_WindSpeed_IsbL-0970_RLatLon0.03_PT043H.grib2 2026-04-26 06:19 2.0M
20260426T00Z_MSC_CAPS_WindSpeed_IsbL-0985_RLatLon0.03_PT043H.grib2 2026-04-26 06:19 2.0M
20260426T00Z_MSC_CAPS_WindSpeed_IsbL-1000_RLatLon0.03_PT043H.grib2 2026-04-26 06:19 2.1M
20260426T00Z_MSC_CAPS_WindSpeed_IsbL-1015_RLatLon0.03_PT043H.grib2 2026-04-26 06:19 2.1M
20260426T00Z_MSC_CAPS_WindU_AGL-10m_RLatLon0.03_PT043H.grib2 2026-04-26 06:19 1.5M
20260426T00Z_MSC_CAPS_WindU_AGL-120m_RLatLon0.03_PT043H.grib2 2026-04-26 06:19 1.0M
20260426T00Z_MSC_CAPS_WindU_AGL-40m_RLatLon0.03_PT043H.grib2 2026-04-26 06:19 937K
20260426T00Z_MSC_CAPS_WindU_AGL-80m_RLatLon0.03_PT043H.grib2 2026-04-26 06:19 912K
20260426T00Z_MSC_CAPS_WindU_IsbL-0050_RLatLon0.03_PT043H.grib2 2026-04-26 06:19 763K
20260426T00Z_MSC_CAPS_WindU_IsbL-0100_RLatLon0.03_PT043H.grib2 2026-04-26 06:19 959K
20260426T00Z_MSC_CAPS_WindU_IsbL-0150_RLatLon0.03_PT043H.grib2 2026-04-26 06:19 909K
20260426T00Z_MSC_CAPS_WindU_IsbL-0175_RLatLon0.03_PT043H.grib2 2026-04-26 06:19 717K
20260426T00Z_MSC_CAPS_WindU_IsbL-0200_RLatLon0.03_PT043H.grib2 2026-04-26 06:19 858K
20260426T00Z_MSC_CAPS_WindU_IsbL-0225_RLatLon0.03_PT043H.grib2 2026-04-26 06:19 878K
20260426T00Z_MSC_CAPS_WindU_IsbL-0250_RLatLon0.03_PT043H.grib2 2026-04-26 06:19 904K
20260426T00Z_MSC_CAPS_WindU_IsbL-0275_RLatLon0.03_PT043H.grib2 2026-04-26 06:19 911K
20260426T00Z_MSC_CAPS_WindU_IsbL-0300_RLatLon0.03_PT043H.grib2 2026-04-26 06:19 715K
20260426T00Z_MSC_CAPS_WindU_IsbL-0350_RLatLon0.03_PT043H.grib2 2026-04-26 06:19 935K
20260426T00Z_MSC_CAPS_WindU_IsbL-0400_RLatLon0.03_PT043H.grib2 2026-04-26 06:19 941K
20260426T00Z_MSC_CAPS_WindU_IsbL-0450_RLatLon0.03_PT043H.grib2 2026-04-26 06:19 960K
20260426T00Z_MSC_CAPS_WindU_IsbL-0500_RLatLon0.03_PT043H.grib2 2026-04-26 06:19 1.0M
20260426T00Z_MSC_CAPS_WindU_IsbL-0550_RLatLon0.03_PT043H.grib2 2026-04-26 06:19 1.0M
20260426T00Z_MSC_CAPS_WindU_IsbL-0600_RLatLon0.03_PT043H.grib2 2026-04-26 06:19 1.0M
20260426T00Z_MSC_CAPS_WindU_IsbL-0650_RLatLon0.03_PT043H.grib2 2026-04-26 06:19 1.0M
20260426T00Z_MSC_CAPS_WindU_IsbL-0700_RLatLon0.03_PT043H.grib2 2026-04-26 06:19 1.1M
20260426T00Z_MSC_CAPS_WindU_IsbL-0750_RLatLon0.03_PT043H.grib2 2026-04-26 06:19 1.1M
20260426T00Z_MSC_CAPS_WindU_IsbL-0800_RLatLon0.03_PT043H.grib2 2026-04-26 06:19 1.2M
20260426T00Z_MSC_CAPS_WindU_IsbL-0850_RLatLon0.03_PT043H.grib2 2026-04-26 06:19 1.3M
20260426T00Z_MSC_CAPS_WindU_IsbL-0875_RLatLon0.03_PT043H.grib2 2026-04-26 06:19 1.3M
20260426T00Z_MSC_CAPS_WindU_IsbL-0900_RLatLon0.03_PT043H.grib2 2026-04-26 06:19 1.3M
20260426T00Z_MSC_CAPS_WindU_IsbL-0925_RLatLon0.03_PT043H.grib2 2026-04-26 06:19 1.4M
20260426T00Z_MSC_CAPS_WindU_IsbL-0950_RLatLon0.03_PT043H.grib2 2026-04-26 06:19 1.4M
20260426T00Z_MSC_CAPS_WindU_IsbL-0970_RLatLon0.03_PT043H.grib2 2026-04-26 06:19 1.4M
20260426T00Z_MSC_CAPS_WindU_IsbL-0985_RLatLon0.03_PT043H.grib2 2026-04-26 06:19 1.4M
20260426T00Z_MSC_CAPS_WindU_IsbL-1000_RLatLon0.03_PT043H.grib2 2026-04-26 06:19 1.4M
20260426T00Z_MSC_CAPS_WindU_IsbL-1015_RLatLon0.03_PT043H.grib2 2026-04-26 06:19 1.5M
20260426T00Z_MSC_CAPS_WindV_AGL-10m_RLatLon0.03_PT043H.grib2 2026-04-26 06:19 1.9M
20260426T00Z_MSC_CAPS_WindV_AGL-120m_RLatLon0.03_PT043H.grib2 2026-04-26 06:19 901K
20260426T00Z_MSC_CAPS_WindV_AGL-40m_RLatLon0.03_PT043H.grib2 2026-04-26 06:19 938K
20260426T00Z_MSC_CAPS_WindV_AGL-80m_RLatLon0.03_PT043H.grib2 2026-04-26 06:19 909K
20260426T00Z_MSC_CAPS_WindV_IsbL-0050_RLatLon0.03_PT043H.grib2 2026-04-26 06:19 944K
20260426T00Z_MSC_CAPS_WindV_IsbL-0100_RLatLon0.03_PT043H.grib2 2026-04-26 06:19 791K
20260426T00Z_MSC_CAPS_WindV_IsbL-0150_RLatLon0.03_PT043H.grib2 2026-04-26 06:19 907K
20260426T00Z_MSC_CAPS_WindV_IsbL-0175_RLatLon0.03_PT043H.grib2 2026-04-26 06:19 713K
20260426T00Z_MSC_CAPS_WindV_IsbL-0200_RLatLon0.03_PT043H.grib2 2026-04-26 06:19 851K
20260426T00Z_MSC_CAPS_WindV_IsbL-0225_RLatLon0.03_PT043H.grib2 2026-04-26 06:19 872K
20260426T00Z_MSC_CAPS_WindV_IsbL-0250_RLatLon0.03_PT043H.grib2 2026-04-26 06:19 897K
20260426T00Z_MSC_CAPS_WindV_IsbL-0275_RLatLon0.03_PT043H.grib2 2026-04-26 06:19 907K
20260426T00Z_MSC_CAPS_WindV_IsbL-0300_RLatLon0.03_PT043H.grib2 2026-04-26 06:19 920K
20260426T00Z_MSC_CAPS_WindV_IsbL-0350_RLatLon0.03_PT043H.grib2 2026-04-26 06:19 933K
20260426T00Z_MSC_CAPS_WindV_IsbL-0400_RLatLon0.03_PT043H.grib2 2026-04-26 06:19 939K
20260426T00Z_MSC_CAPS_WindV_IsbL-0450_RLatLon0.03_PT043H.grib2 2026-04-26 06:19 960K
20260426T00Z_MSC_CAPS_WindV_IsbL-0500_RLatLon0.03_PT043H.grib2 2026-04-26 06:19 1.0M
20260426T00Z_MSC_CAPS_WindV_IsbL-0550_RLatLon0.03_PT043H.grib2 2026-04-26 06:19 1.0M
20260426T00Z_MSC_CAPS_WindV_IsbL-0600_RLatLon0.03_PT043H.grib2 2026-04-26 06:19 929K
20260426T00Z_MSC_CAPS_WindV_IsbL-0650_RLatLon0.03_PT043H.grib2 2026-04-26 06:19 1.0M
20260426T00Z_MSC_CAPS_WindV_IsbL-0700_RLatLon0.03_PT043H.grib2 2026-04-26 06:19 1.1M
20260426T00Z_MSC_CAPS_WindV_IsbL-0750_RLatLon0.03_PT043H.grib2 2026-04-26 06:19 1.0M
20260426T00Z_MSC_CAPS_WindV_IsbL-0800_RLatLon0.03_PT043H.grib2 2026-04-26 06:19 1.1M
20260426T00Z_MSC_CAPS_WindV_IsbL-0850_RLatLon0.03_PT043H.grib2 2026-04-26 06:19 1.2M
20260426T00Z_MSC_CAPS_WindV_IsbL-0875_RLatLon0.03_PT043H.grib2 2026-04-26 06:19 1.3M
20260426T00Z_MSC_CAPS_WindV_IsbL-0900_RLatLon0.03_PT043H.grib2 2026-04-26 06:19 1.3M
20260426T00Z_MSC_CAPS_WindV_IsbL-0925_RLatLon0.03_PT043H.grib2 2026-04-26 06:19 1.4M
20260426T00Z_MSC_CAPS_WindV_IsbL-0950_RLatLon0.03_PT043H.grib2 2026-04-26 06:19 1.4M
20260426T00Z_MSC_CAPS_WindV_IsbL-0970_RLatLon0.03_PT043H.grib2 2026-04-26 06:19 1.4M
20260426T00Z_MSC_CAPS_WindV_IsbL-0985_RLatLon0.03_PT043H.grib2 2026-04-26 06:19 1.4M
20260426T00Z_MSC_CAPS_WindV_IsbL-1000_RLatLon0.03_PT043H.grib2 2026-04-26 06:19 1.8M
20260426T00Z_MSC_CAPS_WindV_IsbL-1015_RLatLon0.03_PT043H.grib2 2026-04-26 06:19 1.8M